Flag for Canada Weather past 2 weeks in Kirkland Lake, Ontario, Canada

Now
16 °F

Light snow. Overcast.


Feels Like: 0 °F
Forecast: 4 / 14 °F
Wind: 16 mph from Northwest

Location: Earlton

Current Time: Dec 18, 2014 at 3:57:31 AM

Latest Report: Dec 18, 2014 at 3:00 AM


Visibility: 9 mi

Pressure: 30.12 "Hg

Humidity: 86%

Dew point: 12 °F

Location of Kirkland LakeLocation

Historic Weather in Kirkland Lake — Graph

°F

Kirkland Lake temperature yesterday

Maximum temperature yesterday: 32 °F (at 12:00 AM)
Minimum temperature yesterday: 18 °F (at 10:00 PM)
Average temperature yesterday: 23 °F

Past Weeks' High & Low Weather Summary

 TemperatureHumidityPressure
High34 °F (Dec 16, 11:00 AM)100% (Dec 3, 3:46 AM)30.86 "Hg (Dec 3, 3:46 AM)
Low-9 °F (Dec 7, 12:45 AM)51% (Dec 4, 2:00 PM)29.72 "Hg (Dec 3, 2:00 PM)
Average19 °F88%30.16 "Hg
* Reported Dec 3 2:02 AM — Dec 18 2:00 AM, Kirkland Lake, Weather by CustomWeather, © 2014

Note: Actual official high and low records may vary slightly from our data, if they occured in-between our weather recording intervals... More about our weather records

Advertising

Kirkland Lake weather history for previous 24 hours

 ConditionsComfort  
Time TempWeatherWind HumidityBarometerVisibility
2:00 AM
Dec 18
16 °FLight snow. Mostly cloudy.14 mph93%30.10 "Hg3 mi
1:00 AM16 °FLight snow. Overcast.15 mph93%30.08 "Hg2 mi
12:00 AM18 °FLight snow. Overcast.15 mph86%30.07 "Hg9 mi
11:00 PM
Dec 17
18 °FLight snow. Overcast.16 mph93%30.05 "Hg7 mi
10:00 PM18 °FLight snow. Overcast.15 mph93%30.04 "Hg9 mi
9:00 PM19 °FLight snow. Overcast.14 mph93%30.03 "Hg9 mi
8:00 PM19 °FLight snow. Mostly cloudy.14 mph93%30.01 "Hg6 mi
7:00 PM19 °FLight snow. Mostly cloudy.16 mph93%29.99 "Hg7 mi
6:00 PM19 °FLight snow. Overcast.15 mph93%29.97 "Hg2 mi
5:00 PM21 °FLight snow. Mostly cloudy.16 mph93%29.96 "Hg5 mi
4:00 PM21 °FLight snow. Cloudy.15 mph93%29.93 "Hg8 mi
3:01 PM21 °FLight snow. More clouds than sun.15 mph93%29.92 "Hg6 mi
2:00 PM23 °FLight snow. Overcast.14 mph93%29.91 "Hg2 mi
1:00 PM21 °FLight snow. Overcast.18 mph93%29.90 "Hg2 mi
12:00 PM23 °FLight snow. Overcast.18 mph93%29.90 "Hg3 mi
11:01 AM23 °FLight snow. Overcast.15 mph93%29.91 "Hg1 mi
10:00 AM23 °FLight snow. Ice fog.16 mph93%29.90 "Hg1 mi
9:01 AM23 °FLight snow. More clouds than sun.14 mph93%29.89 "Hg1 mi
8:00 AM23 °FLight snow. Overcast.16 mph100%29.88 "Hg2 mi
7:54 AM23 °FLight snow. Overcast.15 mph100%29.88 "Hg2 mi
7:04 AM23 °FLight snow. Overcast.15 mph100%29.86 "Hg2 mi
6:00 AM25 °FLight snow. Overcast.15 mph93%29.86 "Hg4 mi
5:55 AM25 °FLight snow. Overcast.15 mph93%29.86 "Hg5 mi
5:00 AM25 °FLight snow. Mostly cloudy.13 mph100%29.85 "Hg2 mi
4:00 AM27 °FLight snow. Mostly cloudy.15 mph100%29.85 "Hg3 mi
3:04 AM28 °FLight snow. Mostly cloudy.12 mph93%29.86 "Hg1 mi
Weather by CustomWeather, © 2014

See weather overviewHow to use our weather pages